Home   Weather   Farmington   Past weeks

Flag for USA Past Weather in Farmington, New Mexico, USA — Yesterday and Last 2 Weeks

Now
40 °F

Overcast.


Feels Like: 32 °F
Forecast: 34 / 50 °F
Wind: 14 mph from West

Location: Four Corners Regional Airport

Current Time: Apr 28, 2017 at 6:20:24 am

Latest Report: Apr 28, 2017 at 5:53 am


Visibility: 10 mi

Pressure: 29.68 "Hg (24.32 "Hg at 1617m altitude)

Humidity: 60%

Dew Point: 27 °F

Location of FarmingtonLocation

Past Weather in Farmington — Graph

°F

Farmington Temperature Yesterday

Maximum temperature yesterday: 58 °F (at 5:53 pm)
Minimum temperature yesterday: 41 °F (at 11:06 am)
Average temperature yesterday: 48 °F

High & Low Weather Summary for the Past Weeks

 TemperatureHumidityPressure
High78 °F (Apr 18, 5:53 pm)93% (Apr 27, 6:53 am)30.13 "Hg (Apr 27, 6:53 am)
Low32 °F (Apr 22, 6:53 am)2% (Apr 14, 3:53 pm)29.48 "Hg (Apr 25, 2:53 am)
Average55 °F32%29.86 "Hg
* Reported Apr 13 4:53 am — Apr 28 4:53 am, Farmington, Weather by CustomWeather, © 2017

Note: Actual official high and low records may vary slightly from our data, if they occured in-between our weather recording intervals... More about our weather records

Advertising

Farmington Weather History for the Previous 24 Hours

Scroll right to see more
 ConditionsComfort  
Time TempWeatherWind HumidityBarometerVisibility
4:53 am
Fri, Apr 28
41 °FOvercast.10 mph55%29.70 "Hg10 mi
3:53 am43 °FOvercast.12 mph43%29.70 "Hg10 mi
2:53 am44 °FMostly cloudy.9 mph45%29.69 "Hg10 mi
1:53 am45 °FOvercast.9 mph35%29.69 "Hg10 mi
12:53 am47 °FMostly cloudy.7 mph32%29.69 "Hg10 mi
11:53 pm
Thu, Apr 27
44 °FPassing clouds.7 mph40%29.68 "Hg10 mi
10:53 pm48 °FPartly cloudy.14 mph29%29.69 "Hg10 mi
9:53 pm49 °FPassing clouds.17 mph23%29.65 "Hg10 mi
8:53 pm50 °FPassing clouds.16 mph26%29.61 "Hg10 mi
7:53 pm53 °FPartly sunny.12 mph27%29.59 "Hg10 mi
6:53 pm57 °FPartly sunny.23 mph18%29.55 "Hg10 mi
5:53 pm58 °FScattered clouds.21 mph30%29.53 "Hg10 mi
4:53 pm57 °FMore clouds than sun.16 mph41%29.54 "Hg10 mi
3:53 pm56 °FPartly sunny.26 mph37%29.55 "Hg10 mi
2:53 pm57 °FSunny.17 mph44%29.57 "Hg10 mi
1:53 pm52 °FBroken clouds.13 mph59%29.61 "Hg10 mi
12:53 pm51 °FPassing clouds.8 mph77%29.63 "Hg10 mi
12:29 pm47 °FBroken clouds.12 mph80%29.73 "Hg10 mi
11:53 am44 °FOvercast.10 mph85%29.67 "Hg10 mi
11:44 am43 °FMore clouds than sun.9 mph89%29.72 "Hg10 mi
11:37 am42 °FThundershowers. Mostly cloudy.9 mph89%29.72 "Hg10 mi
11:06 am41 °FThunderstorms. Fog.10 mph86%29.71 "Hg4 mi
10:53 am43 °FThundershowers. Mostly cloudy.14 mph79%29.65 "Hg10 mi
10:17 am46 °FPartly sunny.17 mph73%29.71 "Hg10 mi
9:53 am50 °FScattered clouds.6 mph77%29.63 "Hg10 mi
8:53 am47 °FBroken clouds.No wind83%29.64 "Hg10 mi
7:53 am44 °FLight rain. Mostly cloudy.6 mph93%29.64 "Hg7 mi
6:53 am43 °FLight rain. Mostly cloudy.6 mph93%29.64 "Hg10 mi
Weather by CustomWeather, © 2017

See weather overviewHow to use our weather pages